Flag for Italy Weather past 2 weeks in Venice, Italy

68 °F

Passing clouds.

Feels Like: 68 °F
Forecast: 60 / 68 °F
Wind: 8 mph from East

Location: Venice / Tessera

Current Time: Oct 9, 2015 at 2:22:36 PM

Latest Report: Oct 9, 2015 at 1:50 PM

Visibility: N/A

Pressure: 30.04 "Hg

Humidity: 56%

Dew point: 52 °F

Location of VeniceLocation

Historic Weather in Venice — Graph


Venice temperature yesterday

Maximum temperature yesterday: 72 °F (at 2:20 PM)
Minimum temperature yesterday: 59 °F (at 4:20 AM)
Average temperature yesterday: 65 °F

Past Weeks' High & Low Weather Summary

High72 °F (Oct 7, 1:50 PM)100% (Oct 3, 10:20 PM)30.33 "Hg (Oct 3, 10:20 PM)
Low54 °F (Sep 30, 5:50 AM)30% (Sep 28, 1:50 PM)29.74 "Hg (Oct 7, 6:20 AM)
Average63 °F69%30.10 "Hg
* Reported Sep 24 12:20 PM — Oct 9 12:50 PM, Venice, Weather by CustomWeather, © 2015

Note: Actual official high and low records may vary slightly from our data, if they occured in-between our weather recording intervals... More about our weather records


Venice weather history for previous 24 hours

Time TempWeatherWind HumidityBarometerVisibility
12:50 PM
Fri, Oct 9
66 °FSunny.8 mph60%30.04 "Hg10 mi
12:20 PM66 °FSunny.8 mph64%30.04 "Hg10 mi
11:50 AM66 °FSunny.9 mph64%30.04 "Hg10 mi
11:20 AM66 °FSunny.8 mph64%30.07 "Hg10 mi
10:50 AM64 °FSunny.8 mph68%30.07 "Hg10 mi
10:20 AM64 °FSunny.10 mph68%30.07 "Hg10 mi
9:50 AM63 °FSunny.8 mph73%30.07 "Hg10 mi
9:20 AM61 °FPassing clouds.9 mph77%30.07 "HgN/A
8:50 AM61 °FPassing clouds.7 mph77%30.07 "HgN/A
8:20 AM59 °FPassing clouds.7 mph82%30.04 "HgN/A
7:50 AM59 °FPassing clouds.6 mph82%30.04 "HgN/A
7:20 AM57 °FPassing clouds.8 mph94%30.04 "HgN/A
6:50 AM61 °FClear.7 mph83%30.04 "Hg10 mi
6:20 AM59 °FPassing clouds.6 mph88%30.04 "HgN/A
5:50 AM59 °FClear.6 mph82%30.04 "Hg10 mi
5:20 AM59 °FPassing clouds.5 mph88%30.04 "HgN/A
4:50 AM59 °FPassing clouds.2 mph88%30.04 "HgN/A
4:20 AM63 °FClear.7 mph73%30.04 "Hg10 mi
3:50 AM63 °FClear.8 mph73%30.01 "Hg10 mi
3:20 AM59 °FClear.7 mph88%30.04 "Hg10 mi
2:50 AM59 °FPassing clouds.3 mph88%30.04 "HgN/A
1:50 AM61 °FClear.6 mph83%30.04 "Hg10 mi
1:20 AM63 °FClear.7 mph77%30.04 "Hg10 mi
12:50 AM61 °FClear.7 mph83%30.04 "Hg10 mi
12:20 AM61 °FClear.7 mph83%30.04 "Hg10 mi
11:50 PM
Thu, Oct 8
61 °FClear.6 mph83%30.04 "Hg10 mi
11:20 PM63 °FPassing clouds.6 mph77%30.04 "HgN/A
10:50 PM63 °FPassing clouds.5 mph77%30.04 "HgN/A
10:20 PM64 °FPassing clouds.5 mph73%30.04 "HgN/A
9:50 PM66 °FPassing clouds.3 mph68%30.01 "HgN/A
9:20 PM66 °FPassing clouds.6 mph68%30.01 "HgN/A
8:50 PM64 °FPassing clouds.5 mph73%30.01 "HgN/A
7:50 PM66 °FPassing clouds.6 mph68%30.01 "HgN/A
7:20 PM66 °FPartly sunny.7 mph68%29.98 "HgN/A
6:50 PM66 °FScattered clouds.5 mph68%29.98 "HgN/A
6:20 PM66 °FScattered clouds.5 mph68%29.98 "HgN/A
5:50 PM66 °FScattered clouds.5 mph73%29.98 "HgN/A
5:20 PM66 °FScattered clouds.6 mph73%29.98 "HgN/A
4:50 PM66 °FScattered clouds.5 mph68%29.95 "HgN/A
4:20 PM68 °FScattered clouds.9 mph69%29.95 "HgN/A
3:50 PM66 °FScattered clouds.9 mph78%29.95 "HgN/A
3:20 PM70 °FSprinkles. Scattered clouds.9 mph64%29.95 "HgN/A
2:50 PM72 °FPassing clouds.7 mph61%29.95 "HgN/A
2:20 PM72 °FPassing clouds.7 mph65%29.95 "HgN/A
Weather by CustomWeather, © 2015

See weather overviewHow to use our weather pages